Tracking 19846 objects as of 18-Sep-2019
HD Live streaming from Space Station
objects crossing your sky now

METEOR 2-5 DEB


METEOR 2-5 DEB is no longer on orbit


NORAD ID: 36900
Int'l Code: 1979-095AR
Perigee: N/A
Apogee: N/A
Inclination: N/A
Period: N/A
Semi major axis: N/A
RCS: N/A
Launch date: October 31, 1979
Source: Commonwealth of Independent States (former USSR) (CIS)
Launch site: PLESETSK MISSILE AND SPACE COMPLEX (PKMTR)
Decay date: 2013-05-23

Note: This is SATELLITE DEBRIS
aabbcc
Your satellite tracking list
Your tracking list is empty




NASA's NSSDC Master Catalog

Two Line Element Set (TLE):
1 36900U 79095AR  13137.20106360  .01280104  00000-0  75331-2 0  9998
2 36900 081.0580 099.8714 0020035 131.7635 002.9724 15.75508040503597
Source of the keplerian elements: AFSPC